Simultaneous Nadir Overpasses (SNOs) Predictions

Prediction of SNOs between GOES-16 and METOP-C Satellite Orbit:

Table of predicted SNOs for the next 14.0 days since TLE Epoch: 7/3/2022
Index Date Time (GOES-16) GOES-16 Lat,Lon METOP-C Lat,Lon Distance(km) Time Diff (sec)
1 07/05/2022 02:33:59 -0.01, -75.20 -0.23, -76.08 101.33 80
2 07/06/2022 02:16:00 -0.01, -75.19 0.89, -71.09 467.58 80
3 07/07/2022 14:32:12 0.01, -75.20 0.11, -75.66 51.76 80
4 07/10/2022 02:30:32 -0.02, -75.20 -0.06, -75.25 7.75 80
5 07/12/2022 14:31:25 0.02, -75.20 -0.05, -74.83 42.45 80
6 07/14/2022 02:50:25 -0.01, -75.20 -0.93, -79.43 481.98 80
7 07/15/2022 02:27:06 -0.01, -75.20 0.18, -74.44 87.40 80
8 07/16/2022 14:48:38 0.01, -75.22 0.83, -79.01 431.05 80
9 07/17/2022 14:25:19 0.00, -75.23 -0.28, -74.01 139.01 80
